Regional Weather Roundup
Issued by NWS

Home | Current Version | Previous Version | Text Only | Print | Product List | Glossary On
Versions: 1 2 3 4 5 6 7 8 9 10 11 12 13 14 15 16 17 18 19 20 21 22 23 24 25 26 27 28 29 30 31 32 33 34 35 36 37 38 39 40 41 42 43 44 45 46 47 48 49 50
000
ASUS45 KBOI 301610
RWRID

IDAHO REGIONAL WEATHER ROUNDUP
NATIONAL WEATHER SERVICE BOISE ID
1000 AM MDT MON MAY 30 2016

NOTE: "FAIR" INDICATES FEW OR NO CLOUDS BELOW 12000 FEET
WITH NO SIGNIFICANT WEATHER AND/OR OBSTRUCTIONS TO VISIBILITY

IDZ012-014-301700-
SOUTHWEST IDAHO


CITY           SKY/WX    TMP DP  RH WIND       PRES   REMARKS
BOISE          SUNNY     59  40  49 NW12      30.17S
CALDWELL       SUNNY     62  41  46 W17       30.18R
MOUNTAIN HOME  SUNNY     66  44  43 NW23      30.15R
$$

IDZ016-017-301700-
SOUTHCENTRAL IDAHO


CITY           SKY/WX    TMP DP  RH WIND       PRES   REMARKS
BURLEY         SUNNY     61  39  44 W21G32    30.13R
JEROME         MOSUNNY   60  40  47 SW15      30.16R
TWIN FALLS     MOSUNNY   61  36  39 W20G28    30.16R
$$

IDZ019>023-301700-
SOUTHEAST IDAHO


CITY           SKY/WX    TMP DP  RH WIND       PRES   REMARKS
IDAHO FALLS    SUNNY     59  46  62 SW14      30.12S
POCATELLO      MOSUNNY   61  40  45 SW20      30.14S
REXBURG        SUNNY     58  45  62 SW8       30.11S
$$

IDZ006-010-011-018-031-032-301700-
CENTRAL IDAHO MOUNTAINS


CITY           SKY/WX    TMP DP  RH WIND       PRES   REMARKS
MCCALL         SUNNY     53  30  41 N7        30.18R
HAILEY         SUNNY     57  34  41 NW6       30.14F
STANLEY          N/A     51  31  46 VRB3      30.20S
SALMON         MOSUNNY   57  36  44 N5        30.13S
CHALLIS        SUNNY     57  35  43 VRB3      30.14F
$$

IDZ002-004-006-007-026-301700-
NORTHERN IDAHO


CITY           SKY/WX    TMP DP  RH WIND       PRES   REMARKS
LEWISTON       SUNNY     62  37  39 VRB3      30.23R
LOWELL           N/A     63  41  44 SE6       30.21S
COEUR D`ALENE  SUNNY     54  39  58 SW3       30.20S
MULLAN PASS    SUNNY     42  31  64 VRB3      30.21R
$$



USA.gov is the U.S. government's official web portal to all federal, state and local government web resources and services.